TimeMST,TemperatureF,Dew PointF,Humidity,Sea Level PressureIn,VisibilityMPH,Wind Direction,Wind SpeedMPH,Gust SpeedMPH,PrecipitationIn,Events,Conditions,WindDirDegrees,DateUTC
12:56 AM,52.0,27.0,38,29.76,10.0,SW,9.2,-,N/A,,Clear,230,2013-03-23 07:56:00
1:56 AM,51.1,26.1,38,29.76,10.0,WSW,12.7,-,N/A,,Clear,240,2013-03-23 08:56:00
2:56 AM,51.1,27.0,39,29.75,10.0,WSW,11.5,-,N/A,,Clear,240,2013-03-23 09:56:00
3:56 AM,50.0,27.0,41,29.76,10.0,SW,5.8,-,N/A,,Clear,230,2013-03-23 10:56:00
4:56 AM,48.0,28.0,46,29.79,10.0,WSW,6.9,-,N/A,,Clear,250,2013-03-23 11:56:00
5:56 AM,44.1,27.0,51,29.82,10.0,South,6.9,-,N/A,,Clear,180,2013-03-23 12:56:00
6:56 AM,44.1,27.0,51,29.85,10.0,SSE,4.6,-,N/A,,Clear,150,2013-03-23 13:56:00
7:56 AM,53.1,28.9,40,29.86,10.0,SSE,6.9,-,N/A,,Clear,160,2013-03-23 14:56:00
8:56 AM,60.1,27.0,28,29.86,10.0,SW,6.9,-,N/A,,Clear,220,2013-03-23 15:56:00
9:56 AM,64.0,23.0,21,29.86,10.0,WNW,9.2,-,N/A,,Clear,300,2013-03-23 16:56:00
10:56 AM,68.0,10.9,11,29.84,10.0,WNW,19.6,24.2,N/A,,Clear,300,2013-03-23 17:56:00
11:56 AM,69.1,17.1,14,29.83,10.0,West,13.8,24.2,N/A,,Clear,260,2013-03-23 18:56:00
12:56 PM,70.0,9.0,9,29.82,10.0,West,12.7,27.6,N/A,,Clear,260,2013-03-23 19:56:00
1:56 PM,73.0,3.9,7,29.81,10.0,WNW,21.9,34.5,N/A,,Clear,290,2013-03-23 20:56:00
2:56 PM,72.0,10.0,9,29.79,10.0,WNW,20.7,34.5,N/A,,Clear,300,2013-03-23 21:56:00
3:56 PM,72.0,9.0,9,29.81,10.0,NW,24.2,31.1,N/A,,Clear,320,2013-03-23 22:56:00
4:56 PM,70.0,10.9,10,29.81,10.0,NW,18.4,28.8,N/A,,Clear,320,2013-03-23 23:56:00
5:56 PM,66.0,12.9,13,29.84,10.0,NW,16.1,-,N/A,,Clear,320,2013-03-24 00:56:00
6:56 PM,61.0,12.0,15,29.87,10.0,NNW,15.0,-,N/A,,Clear,330,2013-03-24 01:56:00
7:56 PM,55.0,10.0,17,29.90,10.0,NW,11.5,-,N/A,,Clear,320,2013-03-24 02:56:00
8:56 PM,54.0,10.0,17,29.91,10.0,NNW,11.5,-,N/A,,Clear,330,2013-03-24 03:56:00
9:56 PM,50.0,9.0,19,29.92,10.0,NNW,3.5,-,N/A,,Clear,330,2013-03-24 04:56:00
10:56 PM,46.0,9.0,22,29.93,10.0,NNW,9.2,-,N/A,,Clear,340,2013-03-24 05:56:00
11:56 PM,48.0,9.0,21,29.93,10.0,WNW,4.6,-,N/A,,Clear,300,2013-03-24 06:56:00